Location: ??
(34.7707°N, 135.6540°E)
Time: 05:45:00
(UTC+00:00)

COBE Rocket - Pass Details

Date: 09 April 2020
Orbit: 681 x 781 km, 97.1° (Epoch: 05 June)

Event Time Altitude Azimuth Distance (km) Brightness Sun altitude
Exits shadow 18:16:10 34° 141° (SE) 1,151 4.9 -26.8°
Maximum altitude 18:18:04 60° 76° (ENE) 802 4.3 -26.5°
Drops below altitude 10° 18:22:41 10° 357° (N) 2,146 6.6 -25.7°
Sets 18:24:56 0° 354° (N) 3,058 7.4 -25.3°
